Regional Weather Roundup
Issued by NWS

Home | Current Version | Previous Version | Text Only | Print | Product List | Glossary On
Versions: 1 2 3 4 5 6 7 8 9 10 11 12 13 14 15 16 17 18 19 20 21 22 23 24 25 26 27 28 29 30 31 32 33 34 35 36 37 38 39 40 41 42 43 44 45 46 47 48 49 50
000
ASUS45 KREV 271910
RWRNV
NEVADA REGIONAL WEATHER ROUNDUP
NATIONAL WEATHER SERVICE RENO NV
1200 PM PDT SAT MAY 27 2017

NOTE: "FAIR" INDICATES FEW OR NO CLOUDS BELOW 12,000 FEET WITH NO
SIGNIFICANT WEATHER AND/OR OBSTRUCTIONS TO VISIBILITY.

NVZ001-003-004-272000-
WESTERN NEVADA

CITY           SKY/WX    TMP DP  RH WIND       PRES   REMARKS
RENO           SUNNY     73  25  16 E12G17    30.16S
CARSON CITY    FAIR      72  23  16 N7        30.17S
MINDEN         FAIR      68  32  26 CALM      30.17S
FALLON         SUNNY     71  21  15 SW5       30.15F
LOVELOCK       SUNNY     73  26  17 E9G16     30.16S
HAWTHORNE      SUNNY     72  21  15 VRB3      30.15S
$$

NVZ002-CAZ072-073-272000-
NORTHERN AND CENTRAL SIERRA

CITY           SKY/WX    TMP DP  RH WIND       PRES   REMARKS
S. LAKE TAHOE  SUNNY     64  28  25 NE10G18   30.20S
TRUCKEE        SUNNY     64  27  24 MISG      30.21R
SQUAW VLY 8000   N/A     45  30  57 SE7         N/A
SUSANVILLE     SUNNY     72  30  21 E9        30.17S
MAMMOTH LAKES  FAIR      65  25  21 SE7       30.24S
BRIDGEPORT     FAIR      65  22  19 MISG      30.19F
$$

NVZ030-031-036-272000-
NORTHERN NEVADA

CITY           SKY/WX    TMP DP  RH WIND       PRES   REMARKS
ELKO           SUNNY     67  25  20 VRB6      30.23S
WINNEMUCCA     SUNNY     72  30  21 VRB5G21   30.17F
WENDOVER       SUNNY     65  36  34 E8        30.24S
$$

NVZ035-037-272000-
CENTRAL NEVADA

CITY           SKY/WX    TMP DP  RH WIND       PRES   REMARKS
ELY            SUNNY     63  28  26 MISG      30.24S
EUREKA           N/A     63  29  27 N8        30.23S
$$

NVZ013-014-272000-
SOUTH CENTRAL NEVADA

CITY           SKY/WX    TMP DP  RH WIND       PRES   REMARKS
TONOPAH        SUNNY     69  19  15 MISG      30.18S
$$

NVZ017-020-022-272000-
SOUTHERN NEVADA

CITY           SKY/WX    TMP DP  RH WIND       PRES   REMARKS
LAS VEGAS      MOSUNNY   85  26  11 CALM      29.99S
N. LAS VEGAS   SUNNY     85  28  12 VRB6      29.99S
NELLIS AFB     SUNNY     85  32  15 N5        29.97F
HENDERSON      SUNNY     84  33  16 NE13G21   30.03S
MERCURY        SUNNY     83  28  13 VRB6      30.04S
$$



USA.gov is the U.S. government's official web portal to all federal, state and local government web resources and services.